Погода Молыгино

Погода Молыгино : погода сейчас, прогноз погоды и архив. Всё, что Вы хотите узнать о погоде Молыгино!

Поиск расширенной информации на нашем сайте:

Другие новости

Новости СМИ2

Главная страница сайта

Новости сайта

03.07.2017

Напоминаем, что на нашем специализированном сайте Метеоцентр.Азия вы можете получить высокодетализированные автоматические прогнозы погоды по пунктам России, СНГ и мира в авиационном формате (включающие направление и скорость ветра, видимость, явления погоды, количество и форму облачности, нижнюю и верхнюю границу облачности).


Погода Молыгино - сегодня

Время (UTC), дата Ветер
(°,м/с) 
Видим.   Явления Облачность Т
(°С)
Тd
(°С)
f(%) Тe
(°С)
Pmin
(гПа)
dP
(гПа)
Po
(мм)
O2
(г/м3)
Тmin Tmax R s Состояние
почвы
03 21.09.17 150 (ЮВ) н/о    н/о 
+6.5 +5.8 95 +7  1015.4  -0.7  746  293           
06 21.09.17 150 (ЮВ) н/о    н/о 
+8 +5.9 87 +8  1013.5  -1.8  745  290           
09 21.09.17 130 (ЮВ) н/о    н/о 
+8.7 +5.9 83 +9  1010.9  -2.5  743  289           
12 21.09.17 100 (В) н/о    н/о 
+7.3 +5.8 90 +8  1009.5  -1.5  742  290    +9.1       
15 21.09.17 050 (СВ) н/о    н/о 
+5.7 +4.8 94 +7  1007.3  -2.2  740  291           
18 21.09.17 110 (В) н/о    н/о 
+6.1 +4.7 91 +7  1005.4  -1.9  738  290           
21 21.09.17 040 (СВ) н/о    н/о 
+5.6 +4.1 90 +6  1004.1  -1.2  737  291           
00 22.09.17 060 (СВ) н/о    н/о 
+5.1 +4.1 93 +6  1003.8  -0.4  737  291  +4.6         
03 22.09.17 040 (СВ) н/о    н/о 
+6.1 +4.9 92 +7  1004.4  0.7  738  290           
06 22.09.17 050 (СВ) н/о    н/о 
+8.9 +5.3 78 +10  1004.8  0.6  738  287           
09 22.09.17 010 (С) н/о    н/о 
+10.3 +4.2 66 +11  1005.7  739  286           
12 22.09.17 тихо ()   н/о    н/о 
+7.2 +5.9 91 +7  1007.9  740  290    +10.5       
15 22.09.17 тихо ()   н/о    н/о 
+4.8 +4.1 95 +5  1009.4  1.3  741  293           
18 22.09.17 тихо ()   н/о    н/о 
+2.6 +2.3 98 +3  1010.7  1.1  742  296           
21 22.09.17 тихо ()   н/о    н/о 
+3.4 +3.2 99 +3  1011.6  743  295           
00 23.09.17 030 (СВ) н/о    н/о 
+2.9 +2.7 99 +4  1012.8  744  296  +2         
03 23.09.17 290 (З) н/о    н/о 
+4.7 +4.4 98 +6  1013.2  0.5  744  294           
06 23.09.17 200 (Ю) н/о    н/о 
+7.2 +6 92 +8  1013.1  0.1  744  291           
09 23.09.17 200 (Ю) н/о    н/о 
+7.6 +6 90 +7  1013.1  -0.1  744  291           
12 23.09.17 080 (В) н/о    н/о 
+6.3 +5.7 96 +7  1013.3  0.1  744  292    +9.9       
15 23.09.17 360 (С) н/о    н/о 
+5.8 +5.4 97 +7  1013.3  0.1  744  293           
18 23.09.17 040 (СВ) н/о    н/о 
+4.2 +3.8 97 +5  1012.8  -0.7  744  295           
21 23.09.17 050 (СВ) н/о    н/о 
+3.7 +3 95 +5  1012.7  0.1  744  295           
00 24.09.17 060 (СВ) н/о    н/о 
+1.8 +1.6 99 +3  1013.7  0.8  744  298  +1.3         
03 24.09.17 050 (СВ) н/о    н/о 
+7.6 +2.6 71 +9  1014.1  0.8  745  292           
Время (UTC), дата Ветер
(°,м/с) 
Видим.   Явления Облачность Т
(°С)
Тd
(°С)
f(%) Тe
(°С)
Pmin
(гПа)
dP
(гПа)
Po
(мм)
O2
(г/м3)
Тmin Tmax R s Состояние
почвы

Для получения пояснительной информации подведите курсор к названию столбца.

ПОГОДА Молыгино - архив

Всё, что Вы хотите узнать о погоде Молыгино - удобно и подробно!

Выберите нужную дату (начиная с 1 января 2015* года) и нажмите кнопку "Найти".
Будут отображены архивные сводки погоды по пункту Молыгино, начиная с указанной даты.


Отображать данные в формате CSV (для использования в таблицах Excel)


Внимание! Наш архив погоды предназначен исключительно для личного некоммерческого использования в познавательных целях. Если Вам необходимы официальные справки о состоянии погоды (для производственных, юридических, коммерческих и т.п. целей), обращайтесь в органы Росгидромета.

*Примечание: данная дата относится к архиву по метеостанциям СССР (Россия, СНГ, Балтия).
Архив по метеостанциям Зарубежной Европы и Азии (кроме Китая) хранится 10 дней, по другим регионам земного шара (Китай, Африка, Америка, Австралия, Океания) - 1 день.

Молыгино - район местоположения метеостанции


Название, широта, долгота, высота метеостанции:
Молыгино 58.2°ш. 94.8°д. 161 м над ур. моря [Российская Федерация]

Дополнительная информация

В oтличие oт бoльшинства пoгoдных сайтoв мы публикуем пoдрoбную метеoинфoрмацию в детальнoм прoфессиoнальнoм фoрмате.

Характеристики температуры и влажнoсти вoздуха измеряются на высoте 2 м в тени вдали oт зданий и деревьев.
Скoрoсть ветра измеряется на высoте 10 м (на урoвне рoста челoвека скoрoсть ветра ниже в 1.5-2 раза). Если метеoстанция нахoдится в гoрoде или в лесу, тo скoрoсть ветра занижена на 2-4 м/с пo сравнению с oткрытым местoм. Скoрoсть ветра над акватoриями крупных рек и oзёр, а также на вершинах хoлмoв на 2-5 м/с выше, чем в oбычных услoвиях.
Атмoсфернoе давление в разных тoчках местнoсти мoжет значительнo oтличаться oт давления на метеoстанции, в зависимoсти oт услoвий рельефа (при пoдъёме на 10 м давление пoнижается примернo на 1 мм рт.ст.).